EW5069 Weather Reports


time (UTC)temp
C
wind
direction
speed
KPH
gust
KPH
rain 1hr
cm
rain 24hr
cm
rain mn
cm
humidity
%
barometer
mb
20260505041528 17 326 0.0 0.0 0.00 0.00 0.00 65 1003.6
20260505040024 18 360 0.0 0.0 0.00 0.00 0.00 62 1002.9
20260505034625 18 360 0.0 0.0 0.00 0.00 0.00 61 1002.2
20260505033024 18 184 0.0 0.0 0.00 0.00 0.00 61 1001.8
20260505031539 19 360 0.0 0.0 0.00 0.00 0.00 61 1001.9
20260505030023 19 360 0.0 0.0 0.00 0.00 0.00 61 1001.9
20260505024532 19 360 0.0 0.0 0.00 0.00 0.00 61 1001.8
20260505023027 19 360 0.0 0.0 0.00 0.00 0.00 60 1001.9
20260505021526 19 360 0.0 0.0 0.00 0.00 0.00 60 1002.1
20260505020029 19 360 0.0 0.0 0.00 0.00 0.00 59 1002.0
20260505014527 19 360 0.0 0.0 0.00 0.00 0.00 58 1001.8
20260505013021 20 360 0.0 0.0 0.00 0.00 0.00 56 1001.6
20260505011529 20 175 0.0 0.0 0.00 0.00 0.00 54 1001.5
20260505010017 21 188 0.0 0.0 0.00 0.00 0.00 53 1001.5
20260505004534 21 360 0.0 0.0 0.00 0.00 0.00 53 1001.5
20260505003017 21 360 0.0 0.0 0.00 0.00 0.00 52 1001.4
20260505001517 21 360 0.0 0.0 0.00 0.00 0.00 51 1001.1
20260505000031 21 360 0.0 0.0 0.00 0.00 0.00 52 1001.1
20260504234513 22 360 0.0 0.0 0.00 0.00 0.00 51 1000.9
20260504233010 22 360 0.0 0.0 0.00 0.00 0.00 56 1001.3
20260504231508 22 190 0.0 0.0 0.00 0.00 0.00 58 1001.6
20260504230006 21 360 0.0 0.0 0.00 0.00 0.00 62 1002.0
20260504224506 22 360 0.0 0.0 0.00 0.00 0.00 62 1002.2
20260504223003 21 360 0.0 0.0 0.00 0.00 0.00 63 1002.3
20260504221504 22 194 0.0 0.0 0.00 0.00 0.00 62 1002.5
20260504220104 21 360 0.0 0.0 0.00 0.00 0.00 60 1002.6
20260504214600 21 188 0.0 0.0 0.00 0.00 0.00 58 1002.6
20260504213105 21 360 0.0 0.0 0.00 0.00 0.00 59 1002.9
20260504211607 21 360 0.0 0.0 0.00 0.00 0.00 58 1002.9
20260504210056 21 360 0.0 0.0 0.00 0.00 0.00 55 1003.0
20260504204601 22 360 0.0 0.0 0.00 0.00 0.00 53 1002.9
20260504203102 22 360 0.0 0.0 0.00 0.00 0.00 54 1002.9
20260504201552 22 360 0.0 0.0 0.00 0.00 0.00 56 1003.0
20260504200050 22 191 0.0 0.0 0.00 0.00 0.00 57 1003.1
20260504194549 22 360 0.0 0.0 0.00 0.23 0.00 55 1003.3
20260504193047 22 188 0.0 0.0 0.00 0.23 0.00 55 1003.5
20260504191543 22 360 0.0 0.0 0.00 0.23 0.00 57 1003.6
20260504190041 22 360 0.0 0.0 0.00 0.23 0.00 56 1003.8
20260504184540 22 360 0.0 0.0 0.00 0.25 0.00 54 1003.6
20260504183039 22 360 0.0 0.0 0.00 0.25 0.00 55 1003.6
20260504181535 22 360 0.0 0.0 0.00 0.25 0.00 57 1003.7
20260504180036 22 360 0.0 0.0 0.00 0.25 0.00 59 1003.8
20260504174532 21 360 0.0 0.0 0.00 0.25 0.00 58 1003.7
20260504173029 21 360 0.0 0.0 0.00 0.25 0.00 60 1003.8
20260504171525 21 360 0.0 0.0 0.00 0.25 0.00 61 1004.0
20260504081530 10 360 0.0 0.0 0.00 0.25 0.00 79 1007.5
20260504050010 10 360 0.0 0.0 0.00 0.25 0.00 76 1009.2
20260504044506 10 360 0.0 0.0 0.00 0.25 0.00 76 1009.3
20260504043006 10 360 0.0 0.0 0.00 0.25 0.00 76 1009.4